Sanford, ME

7:21 AM EDT on May 26, 2017 (GMT -0400)
Sanford Regional

Weather History for KSFM - December, 2011

Change the Weather History Date:

Monday, December 26, 2011

  Actual Average Record
Temperature  
Mean Temperature 29 °F -  
Max Temperature 37 °F 33 °F 51 °F (2015)
Min Temperature 21 °F 15 °F 3 °F (2000)
Degree Days  
Heating Degree Days 36    
Moisture  
Dew Point 22 °F    
Average Humidity 75    
Maximum Humidity 100    
Minimum Humidity 48    
Precipitation  
Precipitation 0.00 in - - ()
Sea Level Pressure  
Sea Level Pressure 30.00 in    
Wind  
Wind Speed 4 mph (WNW)    
Max Wind Speed 16 mph    
Max Gust Speed 23 mph    
Visibility 10 miles    
Events      
Averages and records for this station are not official NWS values.
T = Trace of Precipitation, MM = Missing Value Source: NWS Daily Summary

Daily Weather History Graph

Daily Weather History Graph

Search for Another Location

Airport or City:

Trip Planner

Search our weather history database for the weather conditions in past years. The results will help you decide how hot, cold, wet, or windy it might be!

Date:

Astronomy

Dec. 26, 2011 Rise Set
Actual Time 7:14 AM EST 4:12 PM EST
Civil Twilight 6:41 AM EST 4:45 PM EST
Nautical Twilight 6:05 AM EST 5:21 PM EST
Astronomical Twilight 5:30 AM EST 5:56 PM EST
Moon 8:29 AM EST 6:40 PM EST
Length of Visible Light 10h 03m
Length of Day
8h 58m
Waxing Crescent, 5% of the Moon is Illuminated
Dec 26
Waxing Crescent
Jan 1
First Quarter
Jan 9
Full
Jan 16
Last Quarter
Jan 23
New

Hourly Weather History & Observations

Time (EST) Temp. Windchill Dew Point Humidity Pressure Visibility Wind Dir Wind Speed Gust Speed Precip Events Conditions
12:15 AM 26.6 °F - 24.8 °F 93% 29.84 in 10.0 mi Calm Calm - N/A   Mostly Cloudy
12:35 AM 26.6 °F - 23.0 °F 86% 29.83 in 10.0 mi Calm Calm - N/A   Overcast
12:55 AM 26.6 °F 22.6 °F 26.6 °F 100% 29.82 in 10.0 mi North 3.5 mph - N/A   Overcast
1:15 AM 26.6 °F - 24.8 °F 93% 29.82 in 10.0 mi Calm Calm - N/A   Overcast
1:35 AM 26.6 °F - 21.2 °F 80% 29.82 in 10.0 mi Calm Calm - N/A   Overcast
1:55 AM 26.6 °F - 24.8 °F 93% 29.82 in 10.0 mi Calm Calm - N/A   Overcast
2:15 AM 26.6 °F - 24.8 °F 93% 29.82 in 10.0 mi Calm Calm - N/A   Overcast
2:35 AM 26.6 °F - 21.2 °F 80% 29.82 in 10.0 mi Calm Calm - N/A   Overcast
2:55 AM 26.6 °F - 24.8 °F 93% 29.81 in 10.0 mi Calm Calm - N/A   Overcast
3:35 AM 28.4 °F - 23.0 °F 80% 29.81 in 10.0 mi Calm Calm - N/A   Overcast
3:55 AM 26.6 °F - 26.6 °F 100% 29.80 in 10.0 mi Calm Calm - N/A   Overcast
4:15 AM 26.6 °F - 24.8 °F 93% 29.81 in 10.0 mi Calm Calm - N/A   Overcast
4:35 AM 28.4 °F - 23.0 °F 80% 29.81 in 10.0 mi Calm Calm - N/A   Overcast
4:55 AM 28.4 °F - 28.4 °F 100% 29.82 in 10.0 mi Calm Calm - N/A   Mostly Cloudy
5:15 AM 26.6 °F 21.2 °F 24.8 °F 93% 29.83 in 10.0 mi NE 4.6 mph - N/A   Scattered Clouds
5:35 AM 26.6 °F 19.1 °F 21.2 °F 80% 29.83 in 10.0 mi NNE 6.9 mph - N/A   Partly Cloudy
5:55 AM 26.6 °F - 24.8 °F 93% 29.84 in 10.0 mi Calm Calm - N/A   Partly Cloudy
6:15 AM 24.8 °F - 21.2 °F 86% 29.86 in 9.0 mi Calm Calm - N/A   Clear
6:35 AM 24.8 °F 19.1 °F 19.4 °F 80% 29.88 in 10.0 mi North 4.6 mph - N/A   Clear
6:55 AM 24.8 °F 20.5 °F 24.8 °F 100% 29.88 in 10.0 mi NW 3.5 mph - N/A   Clear
7:15 AM 21.2 °F - 19.4 °F 93% 29.90 in 10.0 mi Calm Calm - N/A   Clear
7:35 AM 21.2 °F 14.9 °F 15.8 °F 80% 29.91 in 10.0 mi West 4.6 mph - N/A   Clear
7:55 AM 26.6 °F 20.0 °F 26.6 °F 100% 29.92 in 10.0 mi WNW 5.8 mph - N/A   Scattered Clouds
8:15 AM 26.6 °F 22.6 °F 21.2 °F 80% 29.93 in 10.0 mi WNW 3.5 mph - N/A   Partly Cloudy
8:35 AM 28.4 °F 20.4 °F 26.6 °F 93% 29.95 in 10.0 mi WNW 8.1 mph - N/A   Clear
8:55 AM 30.2 °F 23.4 °F 24.8 °F 80% 29.97 in 10.0 mi North 6.9 mph - N/A   Clear
9:15 AM 30.2 °F 26.7 °F 24.8 °F 80% 29.98 in 10.0 mi North 3.5 mph - N/A   Clear
9:35 AM 32.0 °F - 28.4 °F 87% 29.99 in 10.0 mi Calm Calm - N/A   Clear
9:55 AM 35.6 °F - 28.4 °F 75% 30.00 in 10.0 mi Calm Calm - N/A   Clear
10:15 AM 37.4 °F 30.3 °F 28.4 °F 70% 30.01 in 10.0 mi WNW 10.4 mph - N/A   Clear
10:35 AM 37.4 °F 30.8 °F 26.6 °F 65% 30.02 in 10.0 mi West 9.2 mph 16.1 mph N/A   Partly Cloudy
10:55 AM 37.4 °F 28.2 °F 28.4 °F 70% 30.02 in 10.0 mi WNW 16.1 mph 23.0 mph N/A   Mostly Cloudy
11:15 AM 37.4 °F 28.2 °F 26.6 °F 65% 30.02 in 10.0 mi West 16.1 mph 20.7 mph N/A   Mostly Cloudy
11:35 AM 37.4 °F 29.3 °F 24.8 °F 60% 30.03 in 10.0 mi West 12.7 mph 21.9 mph N/A   Overcast
11:55 AM 35.6 °F 26.2 °F 23.0 °F 60% 30.03 in 10.0 mi West 15.0 mph 18.4 mph N/A   Overcast
12:15 PM 35.6 °F 29.9 °F 21.2 °F 56% 30.04 in 10.0 mi West 6.9 mph 16.1 mph N/A   Overcast
12:35 PM 35.6 °F 28.6 °F 19.4 °F 52% 30.04 in 10.0 mi WNW 9.2 mph 19.6 mph N/A   Overcast
12:55 PM 37.4 °F 28.9 °F 19.4 °F 48% 30.05 in 10.0 mi WNW 13.8 mph 19.6 mph N/A   Mostly Cloudy
1:15 PM 37.4 °F 28.9 °F 21.2 °F 52% 30.05 in 10.0 mi West 13.8 mph 19.6 mph N/A   Clear
1:35 PM 37.4 °F 30.8 °F 21.2 °F 52% 30.06 in 10.0 mi West 9.2 mph - N/A   Clear
1:55 PM 35.6 °F 28.0 °F 21.2 °F 56% 30.08 in 10.0 mi WNW 10.4 mph 19.6 mph N/A   Clear
2:15 PM 35.6 °F 27.5 °F 21.2 °F 56% 30.08 in 10.0 mi West 11.5 mph - N/A   Clear
2:35 PM 35.6 °F 26.6 °F 19.4 °F 52% 30.09 in 10.0 mi West 13.8 mph - N/A   Clear
2:55 PM 35.6 °F 27.5 °F 19.4 °F 52% 30.11 in 10.0 mi West 11.5 mph 17.3 mph N/A   Clear
3:15 PM 33.8 °F 26.4 °F 19.4 °F 56% 30.12 in 10.0 mi West 9.2 mph - N/A   Clear
3:35 PM 33.8 °F 25.8 °F 17.6 °F 52% 30.12 in 10.0 mi WNW 10.4 mph 16.1 mph N/A   Clear
3:55 PM 33.8 °F 27.0 °F 17.6 °F 52% 30.13 in 10.0 mi WNW 8.1 mph 17.3 mph N/A   Clear
4:16 PM 32.0 °F 23.0 °F 17.6 °F 55% 30.13 in 10.0 mi West 11.5 mph - N/A   Clear
4:35 PM 30.2 °F 23.4 °F 17.6 °F 60% 30.14 in 10.0 mi West 6.9 mph - N/A   Clear
4:55 PM 30.2 °F 21.9 °F 19.4 °F 64% 30.16 in 10.0 mi West 9.2 mph - N/A   Clear
5:15 PM 30.2 °F 19.8 °F 21.2 °F 69% 30.16 in 10.0 mi West 13.8 mph - N/A   Clear
5:35 PM 30.2 °F - 19.4 °F 64% 30.18 in 10.0 mi Calm Calm - N/A   Clear
5:55 PM 28.4 °F 19.1 °F 19.4 °F 69% 30.18 in 10.0 mi West 10.4 mph - N/A   Clear
6:15 PM 28.4 °F 21.2 °F 15.8 °F 59% 30.19 in 10.0 mi West 6.9 mph - N/A   Clear
6:55 PM 26.6 °F - 19.4 °F 74% 30.18 in 10.0 mi Calm Calm - N/A   Clear
7:15 PM 24.8 °F 20.5 °F 17.6 °F 74% 30.19 in 10.0 mi South 3.5 mph - N/A   Clear
7:35 PM 23.0 °F - 15.8 °F 74% 30.20 in 10.0 mi Calm Calm - N/A   Clear
7:55 PM 23.0 °F - 19.4 °F 86% 30.20 in 10.0 mi Calm Calm - N/A   Clear
8:15 PM 21.2 °F - 17.6 °F 86% 30.19 in 10.0 mi Calm Calm - N/A   Clear
8:35 PM 21.2 °F 12.6 °F 15.8 °F 80% 30.21 in 10.0 mi WSW 6.9 mph - N/A   Clear
8:55 PM 24.8 °F 17.9 °F 19.4 °F 80% 30.19 in 10.0 mi WSW 5.8 mph - N/A   Clear
9:15 PM 24.8 °F 17.9 °F 15.8 °F 69% 30.16 in 10.0 mi SSW 5.8 mph - N/A   Clear
9:35 PM 24.8 °F 20.5 °F 19.4 °F 80% 30.14 in 10.0 mi South 3.5 mph - N/A   Clear
9:55 PM 23.0 °F - 17.6 °F 80% 30.14 in 10.0 mi Calm Calm - N/A   Clear
10:15 PM 23.0 °F 18.4 °F 19.4 °F 86% 30.14 in 10.0 mi West 3.5 mph - N/A   Clear
11:15 PM 21.2 °F - 17.6 °F 86% 30.14 in 10.0 mi Calm Calm - N/A   Clear
11:35 PM 21.2 °F - 14.0 °F 74% 30.14 in 10.0 mi Calm Calm - N/A   Clear
11:55 PM 23.0 °F 17.0 °F 19.4 °F 86% 30.13 in 10.0 mi SW 4.6 mph - N/A   Clear